Location: Dal�� Lhota
(48.7500°N, 14.0167°E)
Time: 01:40:25
(UTC+00:00)

Transit 2A - Pass Details

Date: 05 August 2021
Orbit: 594 x 964 km, 66.7° (Epoch: 21 September)

Event Time Altitude Azimuth Distance (km) Brightness Sun altitude
Rises 02:58:55 0° 157° (SSE) 2,837 8.8 -7.0°
Reaches altitude 10° 03:02:30 10° 125° (SE) 1,977 8.4 -6.6°
Maximum altitude 03:04:07 12° 104° (ESE) 1,883 8.7 -6.3°
Drops below altitude 10° 03:05:45 10° 82° (E) 2,032 9.4 -6.1°
Sets 03:09:34 0° 52° (NE) 3,026 11.8 -5.6°
